[[{"header":{"parameterUnit":"m.s-1","parameterCategory":2,"la1":30.2991,"la2":30.254,"lo1":-89.0895,"lo2":-89.0444,"dy":0.0017,"dx":0.0017,"nx":28,"ny":28,"refTime":"2024-12-17T03:00:00:Z","depth":"0","parameterNumber":2,"parameterNumberName":"U-component_of_CURRENTS"},"data":[0,0,0,0,0,0,0,0,0,0,0,0,0,0,0,0,0,0,0,0,0,0,0,0,0,0,0,0,0,0,0,0,0,0,0,0,0,0,0,0,0,0,0,0,0,0,0,0,0,0,0,0,0,0,0,0,0,0,0.4225,0.4225,0,0.427,0.427,0.427,0.4259,0.4258,0.4258,0.4257,0.4199,0.4199,0.4198,0,0,0,0,0,0,0,0,0,0,0,0,0,0.4172,0.4173,0.4225,0.4225,0.4226,0.427,0.427,0.4271,0.4259,0.4258,0.4258,0.4257,0.42,0.4199,0.4198,0,0,0,0,0,0,0,0,0,0,0,0,0,0.4201,0.4173,0.4224,0.4228,0.4229,0.427,0.427,0.4271,0.4259,0.4258,0.4258,0.4257,0.42,0.4199,0.4197,0.4207,0,0,0.4193,0.4192,0,0,0,0,0,0,0,0,0.4199,0.4203,0.4227,0.4228,0.4229,0.4261,0.4231,0.4245,0.426,0.4245,0.4257,0.4256,0.4213,0.421,0.4218,0.4204,0.4202,0.4193,0.4192,0.4191,0.4191,0,0,0,0,0,0,0,0.4197,0.4201,0.4239,0.4228,0.4229,0.4243,0.4245,0.4234,0.4229,0.4246,0.4246,0.4256,0.4212,0.422,0.4217,0.4201,0.4193,0.4192,0.4191,0.419,0.4206,0.4207,0,0,0,0,0,0,0.4197,0.4199,0.4238,0.4241,0.4215,0.4244,0.4247,0.4249,0.4232,0.423,0.4257,0.4255,0.4223,0.4218,0.4214,0.4238,0.4191,0.419,0.4189,0.4205,0.4206,0.4207,0,0,0,0,0,0,0.4195,0.4199,0.4236,0.4224,0.423,0.4246,0.4249,0.425,0.4263,0.4242,0.4237,0.4268,0.4222,0.4216,0.4217,0.4235,0.4189,0.4188,0.4203,0.4205,0.4207,0.4277,0,0,0,0,0,0,0.4193,0.4198,0.4198,0.4224,0.4231,0.4259,0.425,0.4252,0.4271,0.427,0.425,0.4243,0.4221,0.422,0.4216,0.4232,0.4187,0.4201,0.4204,0.4206,0.4273,0.4281,0.4288,0,0,0,0,0,0.4191,0.4185,0.4198,0.4203,0.423,0.426,0.4264,0.4271,0.4273,0.4278,0.4275,0.4244,0.4232,0.422,0.4215,0.4231,0.42,0.4203,0.4206,0.427,0.4279,0.4288,0,0,0,0,0,0,0.4145,0.4185,0.4199,0.4201,0.4232,0.4258,0.4263,0.428,0.4285,0.4279,0.4261,0.4255,0.4263,0.4241,0.4229,0.4244,0.4211,0.4213,0.4261,0.427,0.4277,0.4283,0.4186,0,0,0,0,0,0.4143,0.4153,0.4196,0.4196,0.4215,0.4247,0.426,0.4271,0.4283,0.4285,0.4278,0.427,0.4273,0.4266,0.4258,0.4266,0.4295,0.4274,0.4281,0.4288,0.4291,0.4364,0.4379,0.4217,0.4217,0.4217,0,0,0.4121,0.4147,0.415,0.4189,0.4212,0.4245,0.4251,0.4273,0.4298,0.4276,0.4297,0.4295,0.4282,0.4294,0.4295,0.4276,0.4356,0.4291,0.4297,0.4296,0.4369,0.4385,0.4399,0.4219,0.4219,0.4218,0,0,0.4098,0.4114,0.4128,0.4163,0.4209,0.4235,0.4247,0.4287,0.4302,0.4329,0.4326,0.4343,0.4334,0.4342,0.4342,0.4387,0.4395,0.4378,0.4417,0.4489,0.4503,0.4516,0.4607,0.4627,0.4379,0.4379,0.438,0,0.4076,0.4101,0.4134,0.4168,0.4198,0.4235,0.4267,0.4293,0.4327,0.4353,0.4336,0.4377,0.4361,0.4403,0.4414,0.4404,0.4453,0.4384,0.4501,0.4513,0.4525,0.4615,0.4636,0.4383,0.4383,0.4382,0.4382,0,0.4078,0.4104,0.4115,0.4175,0.421,0.4237,0.4293,0.4325,0.435,0.4384,0.4434,0.4434,0.4462,0.4461,0.4445,0.4522,0.4535,0.4507,0.4481,0.4546,0.4636,0.4658,0.4388,0.4387,0.4386,0.4385,0,0,0.4016,0.4102,0.4107,0.4141,0.422,0.4243,0.4302,0.4371,0.4418,0.445,0.4519,0.4529,0.4547,0.4549,0.4548,0.4598,0.4728,0.4587,0.4589,0.4683,0.4917,0.4912,0.4934,0.4726,0.4729,0.4732,0.4959,0,0.4014,0.4066,0.412,0.417,0.4205,0.4274,0.4328,0.4394,0.445,0.4522,0.4559,0.4612,0.4578,0.4603,0.4652,0.4714,0.4781,0.4671,0.4833,0.4838,0.483,0.4957,0.4757,0.494,0.4979,0.4983,0.4985,0,0.4003,0.4046,0.4095,0.4183,0.4207,0.4242,0.4345,0.44,0.4517,0.4567,0.4642,0.4686,0.4782,0.473,0.4891,0.4827,0.4876,0.4915,0.4924,0.4904,0.4871,0.4874,0.4977,0.4845,0.5018,0.5015,0.5013,0,0.3941,0.4025,0.406,0.409,0.4197,0.4234,0.429,0.4405,0.4483,0.4606,0.4697,0.4793,0.4877,0.4952,0.5053,0.4985,0.5239,0.5154,0.5201,0.5202,0.5054,0.5037,0.5046,0.5264,0.5264,0.5263,0.5263,0,0.392,0.3948,0.4027,0.405,0.411,0.4187,0.4271,0.4352,0.4492,0.4604,0.4714,0.4843,0.4938,0.5096,0.5133,0.5276,0.5321,0.5248,0.527,0.5076,0.5059,0.4951,0.488,0.5272,0.527,0.5268,0.5267,0,0.3865,0.3911,0.3959,0.4053,0.4084,0.4123,0.4268,0.4336,0.4479,0.464,0.4698,0.493,0.515,0.5273,0.5434,0.5404,0.5369,0.5539,0.5323,0.5314,0.5167,0.5107,0.499,0.4831,0.5612,0.5613,0.5614,0,0.3853,0.3865,0.3949,0.3988,0.4035,0.4108,0.4172,0.4308,0.44,0.4698,0.4783,0.5067,0.5251,0.5536,0.5556,0.5672,0.5474,0.5516,0.532,0.5175,0.5125,0.4904,0.4759,0.5171,0.5168,0.5166,0.5164,0,0.3855,0.387,0.3924,0.3988,0.4043,0.4101,0.42,0.4271,0.4451,0.4617,0.487,0.505,0.5347,0.5399,0.556,0.5577,0.5236,0.5476,0.5366,0.4831,0.4548,0.4398,0.5031,0.5146,0.5148,0.5149,0.515,0.5151,0.3875,0.3903,0.3966,0.4013,0.4062,0.4092,0.4102,0.4226,0.4366,0.4563,0.4818,0.501,0.5173,0.5384,0.5378,0.5219,0.5158,0.5023,0.4989,0.4799,0.454,0.5159,0.5264,0.5266,0.5268,0.527,0.5272,0,0.3933,0.3959,0.3999,0.4037,0.4033,0.4062,0.4123,0.4101,0.4198,0.4435,0.4631,0.4803,0.4884,0.4965,0.4916,0.4733,0.4462,0.4605,0.4212,0.4111,0.4715,0.4589,0.45,0.45,0.45,0.45,0.45,0.45,0.398,0.4023,0.4011,0.3999,0.3993,0.3915,0.3902,0.389,0.3992,0.41,0.4186,0.4337,0.4548,0.4655,0.4486,0.4372,0.3997,0.3845,0.3823,0.4233,0.4265,0.4297,0.416,0.3983,0.3982,0.3005,0.2998,0.2993]},{"header":{"parameterUnit":"m.s-1","parameterCategory":2,"la1":30.2991,"la2":30.254,"lo1":-89.0895,"lo2":-89.0444,"dy":0.0017,"dx":0.0017,"nx":28,"ny":28,"refTime":"2024-12-17T03:00:00:Z","depth":"0","parameterNumber":3,"parameterNumberName":"V-component_of_CURRENTS"},"data":[0,0,0,0,0,0,0,0,0,0,0,0,0,0,0,0,0,0,0,0,0,0,0,0,0,0,0,0,0,0,0,0,0,0,0,0,0,0,0,0,0,0,0,0,0,0,0,0,0,0,0,0,0,0,0,0,0,0,-0.0389,-0.0389,0,-0.0458,-0.0459,-0.046,-0.0507,-0.0507,-0.0507,-0.0507,-0.0585,-0.0587,-0.0589,0,0,0,0,0,0,0,0,0,0,0,0,0,-0.0408,-0.0407,-0.0389,-0.0389,-0.0389,-0.0457,-0.0459,-0.046,-0.0507,-0.0507,-0.0507,-0.0507,-0.0584,-0.0587,-0.0589,0,0,0,0,0,0,0,0,0,0,0,0,0,-0.0434,-0.0406,-0.0388,-0.0418,-0.0421,-0.0457,-0.0459,-0.0461,-0.0507,-0.0507,-0.0507,-0.0507,-0.0583,-0.0587,-0.059,-0.0611,0,0,-0.0599,-0.0601,0,0,0,0,0,0,0,0,-0.0432,-0.0434,-0.0413,-0.0416,-0.0419,-0.047,-0.0494,-0.051,-0.0507,-0.0479,-0.0507,-0.0507,-0.0545,-0.0551,-0.057,-0.0615,-0.0618,-0.06,-0.0602,-0.0603,-0.0604,0,0,0,0,0,0,0,-0.043,-0.0432,-0.042,-0.0414,-0.0417,-0.0465,-0.0468,-0.0498,-0.0515,-0.0482,-0.0484,-0.0485,-0.0547,-0.0567,-0.0572,-0.0619,-0.06,-0.0602,-0.0604,-0.0606,-0.0657,-0.0656,0,0,0,0,0,0,-0.0407,-0.0429,-0.0418,-0.0422,-0.0421,-0.0464,-0.0468,-0.0457,-0.0515,-0.0522,-0.0485,-0.0487,-0.0562,-0.0569,-0.0575,-0.0563,-0.0603,-0.0606,-0.0608,-0.0657,-0.0656,-0.0656,0,0,0,0,0,0,-0.0407,-0.0405,-0.0415,-0.0425,-0.0429,-0.0463,-0.0451,-0.0459,-0.0469,-0.0516,-0.0525,-0.0486,-0.0562,-0.0571,-0.0589,-0.0568,-0.0607,-0.061,-0.0658,-0.0657,-0.0656,-0.0565,0,0,0,0,0,0,-0.0407,-0.0404,-0.0391,-0.0422,-0.0427,-0.0411,-0.0451,-0.046,-0.0468,-0.0471,-0.052,-0.0528,-0.0562,-0.0584,-0.0593,-0.0573,-0.0613,-0.0658,-0.0657,-0.0656,-0.0569,-0.0561,-0.0555,0,0,0,0,0,-0.0408,-0.0375,-0.039,-0.0388,-0.0406,-0.0409,-0.0416,-0.0445,-0.0468,-0.0458,-0.0499,-0.0526,-0.0584,-0.0587,-0.0596,-0.0577,-0.0659,-0.0658,-0.0656,-0.0572,-0.0563,-0.0555,0,0,0,0,0,0,-0.036,-0.0377,-0.0394,-0.0364,-0.0377,-0.0415,-0.041,-0.0435,-0.0463,-0.0469,-0.0522,-0.0532,-0.0541,-0.0573,-0.0575,-0.059,-0.0624,-0.0625,-0.0557,-0.0549,-0.0542,-0.0507,-0.0615,0,0,0,0,0,-0.0347,-0.0335,-0.0356,-0.0331,-0.0337,-0.0376,-0.0383,-0.0401,-0.0429,-0.0442,-0.0477,-0.0516,-0.0546,-0.0557,-0.0588,-0.0596,-0.0611,-0.059,-0.0583,-0.0577,-0.0555,-0.0581,-0.0574,-0.0652,-0.0652,-0.0652,0,0,-0.0322,-0.0328,-0.0322,-0.0322,-0.0342,-0.0329,-0.038,-0.0378,-0.0369,-0.0446,-0.0446,-0.0493,-0.0544,-0.0552,-0.0559,-0.0574,-0.0557,-0.0575,-0.0569,-0.0551,-0.0579,-0.0571,-0.0564,-0.0651,-0.0651,-0.0651,0,0,-0.0261,-0.0272,-0.0244,-0.0251,-0.0264,-0.0287,-0.028,-0.0312,-0.0327,-0.034,-0.0392,-0.0423,-0.0469,-0.0496,-0.0519,-0.0492,-0.0522,-0.0504,-0.0436,-0.0461,-0.0455,-0.0449,-0.0431,-0.0425,-0.0498,-0.0497,-0.0497,0,-0.0232,-0.0198,-0.0234,-0.0208,-0.0205,-0.026,-0.0228,-0.0249,-0.0282,-0.0286,-0.0323,-0.0392,-0.044,-0.0447,-0.0441,-0.0474,-0.048,-0.0463,-0.045,-0.0445,-0.0441,-0.0425,-0.0419,-0.0493,-0.0493,-0.0494,-0.0494,0,-0.0149,-0.013,-0.0111,-0.0101,-0.0102,-0.0082,-0.0114,-0.0117,-0.0155,-0.0182,-0.0204,-0.0281,-0.0316,-0.0342,-0.0386,-0.0376,-0.0385,-0.044,-0.0466,-0.0427,-0.0413,-0.0408,-0.0486,-0.0488,-0.0489,-0.049,0,0,-0.0065,-0.0056,-0.0048,-0.0031,-0.0046,-0.0031,-0.0018,-0.0018,0.0007,-0.0058,-0.0033,-0.012,-0.0169,-0.0198,-0.0262,-0.0288,-0.0269,-0.0341,-0.0345,-0.0311,-0.0286,-0.026,-0.0253,-0.0324,-0.0323,-0.0323,-0.0277,0,0.0009,0.0078,0.0059,0.012,0.0146,0.0104,0.0131,0.0121,0.009,0.0104,0.0012,-0.0001,-0.0112,-0.0126,-0.0171,-0.0236,-0.0257,-0.0273,-0.0338,-0.0339,-0.0312,-0.0247,-0.0243,-0.02,-0.0273,-0.0272,-0.0272,0,0.0095,0.0128,0.02,0.0229,0.024,0.0273,0.0303,0.0319,0.0307,0.028,0.0233,0.0164,0.0122,0.0013,-0.008,-0.0084,-0.0171,-0.0236,-0.0237,-0.024,-0.0305,-0.0258,-0.0189,-0.0434,-0.0265,-0.0266,-0.0266,0,0.0172,0.0224,0.0286,0.0297,0.0327,0.0361,0.0379,0.0381,0.0426,0.0398,0.0441,0.033,0.0326,0.0181,0.0047,-0.0019,-0.0031,-0.0148,-0.0205,-0.0203,-0.0223,-0.0224,-0.0389,-0.0216,-0.0216,-0.0216,-0.0217,0,0.0252,0.0302,0.0334,0.0373,0.0472,0.0451,0.0555,0.0547,0.0589,0.0697,0.0548,0.0635,0.0366,0.0324,0.0141,0.0029,0.0037,-0.0158,-0.0186,-0.0189,-0.0187,-0.0422,-0.0581,-0.0215,-0.0215,-0.0215,-0.0216,0,0.0324,0.0338,0.0422,0.048,0.0511,0.0584,0.0689,0.0768,0.0781,0.0927,0.0934,0.0887,0.0839,0.0604,0.0414,0.0197,-0.0078,-0.0003,0.004,0.0015,-0.0318,-0.0471,-0.062,-0.072,-0.0081,-0.008,-0.0079,0,0.0365,0.0416,0.0519,0.0591,0.0627,0.0733,0.0823,0.0857,0.0965,0.1128,0.1233,0.1223,0.1299,0.1038,0.0629,0.0328,0.0047,0.008,-0.0077,-0.0299,-0.0492,-0.0597,-0.0679,-0.0059,-0.0058,-0.0057,-0.0056,0,0.0454,0.0494,0.0574,0.0719,0.0827,0.0958,0.1097,0.122,0.1319,0.1489,0.1739,0.1828,0.1589,0.1302,0.0826,0.0564,-0.0103,0.0086,-0.0175,-0.0494,-0.059,-0.0709,-0.0104,-0.005,-0.005,-0.0051,-0.0051,-0.0051,0.0536,0.0616,0.0725,0.0863,0.0993,0.1175,0.1322,0.1517,0.1763,0.2076,0.2146,0.2379,0.1856,0.1232,0.0831,0.0013,-0.0012,-0.0272,-0.0433,-0.0512,-0.0638,0.0018,0.0049,0.0049,0.0049,0.0049,0.0049,0,0.0634,0.0723,0.0859,0.1033,0.1191,0.1237,0.1501,0.1688,0.2033,0.2392,0.2664,0.259,0.1952,0.1226,0.013,-0.042,-0.0659,-0.0738,-0.0936,-0.0994,-0.0432,-0.0464,-0.0506,-0.0506,-0.0505,-0.0505,-0.0505,-0.0505,0.0696,0.0833,0.0894,0.1158,0.1293,0.1533,0.1698,0.201,0.2312,0.2783,0.3001,0.3135,0.2507,0.0613,-0.0663,-0.0961,-0.1373,-0.1445,-0.1628,-0.1321,-0.1292,-0.1264,-0.1332,-0.1555,-0.1556,-0.2121,-0.2127,-0.2132]}],[{"header":{"parameterUnit":"m.s-1","parameterCategory":2,"la1":30.2991,"la2":30.254,"lo1":-89.0895,"lo2":-89.0444,"dy":0.0017,"dx":0.0017,"nx":28,"ny":28,"refTime":"2024-12-17T03:00:00:Z","depth":"2","parameterNumber":2,"parameterNumberName":"U-component_of_CURRENTS"},"data":[0,0,0,0,0,0,0,0,0,0,0,0,0,0,0,0,0,0,0,0,0,0,0,0,0,0,0,0,0,0,0,0,0,0,0,0,0,0,0,0,0,0,0,0,0,0,0,0,0,0,0,0,0,0,0,0,0,0,0.3176,0.3177,0,0.3176,0.3175,0.3173,0.3177,0.3179,0.318,0.3181,0.3244,0.3244,0.3244,0,0,0,0,0,0,0,0,0,0,0,0,0,0.3077,0.3078,0.3176,0.3177,0.3178,0.3176,0.3174,0.3173,0.3177,0.3179,0.318,0.3182,0.3243,0.3244,0.3244,0,0,0,0,0,0,0,0,0,0,0,0,0,0.3089,0.3078,0.3176,0.3191,0.3193,0.3176,0.3174,0.3173,0.3177,0.3179,0.3181,0.3183,0.3243,0.3244,0.3244,0.3205,0,0,0.3246,0.3246,0,0,0,0,0,0,0,0,0.3088,0.3091,0.3187,0.319,0.3193,0.3191,0.3163,0.3192,0.3176,0.3168,0.3182,0.3184,0.324,0.3241,0.3214,0.3208,0.321,0.3246,0.3246,0.3246,0.3246,0,0,0,0,0,0,0,0.3088,0.3091,0.3161,0.3189,0.3192,0.3163,0.3167,0.3166,0.3182,0.3169,0.3172,0.3195,0.324,0.3214,0.3216,0.3211,0.3246,0.3246,0.3247,0.3247,0.3321,0.3323,0,0,0,0,0,0,0.312,0.309,0.3161,0.3163,0.3161,0.3165,0.3168,0.3178,0.318,0.3187,0.3193,0.3195,0.3212,0.3216,0.3219,0.3298,0.3246,0.3247,0.3247,0.332,0.3322,0.3324,0,0,0,0,0,0,0.3117,0.3125,0.3162,0.3138,0.3143,0.3167,0.3176,0.3177,0.3176,0.3201,0.3206,0.3196,0.3214,0.3218,0.3268,0.3296,0.3247,0.3247,0.3318,0.332,0.3323,0.3377,0,0,0,0,0,0,0.3114,0.3124,0.3137,0.314,0.3146,0.3177,0.3176,0.3176,0.3192,0.3195,0.3205,0.3211,0.3216,0.3268,0.3269,0.3296,0.3248,0.3316,0.3319,0.3322,0.3373,0.3381,0.3387,0,0,0,0,0,0.311,0.3122,0.3137,0.3147,0.3165,0.3179,0.3177,0.3191,0.3191,0.3193,0.3222,0.3212,0.3289,0.327,0.327,0.3298,0.3314,0.3318,0.3322,0.3369,0.3379,0.3387,0,0,0,0,0,0,0.3087,0.3126,0.3141,0.3166,0.3188,0.3186,0.3195,0.3196,0.3209,0.3227,0.323,0.3239,0.3297,0.3288,0.3267,0.3331,0.33,0.3304,0.3336,0.3345,0.3353,0.3365,0.3248,0,0,0,0,0,0.3091,0.3108,0.3143,0.3163,0.3178,0.3183,0.319,0.3208,0.3227,0.3232,0.3244,0.3269,0.3303,0.332,0.3344,0.3366,0.3386,0.3387,0.3395,0.3401,0.3413,0.3471,0.3485,0.3336,0.3336,0.3336,0,0,0.3085,0.3114,0.3122,0.316,0.3171,0.3194,0.3189,0.3219,0.3245,0.324,0.3274,0.3298,0.3319,0.3364,0.3387,0.3365,0.3456,0.3406,0.3411,0.342,0.3477,0.3491,0.3504,0.3339,0.3338,0.3338,0,0,0.3085,0.3113,0.3128,0.3151,0.3201,0.3212,0.3228,0.3248,0.3266,0.3307,0.3324,0.3371,0.3394,0.3424,0.344,0.3497,0.35,0.3501,0.3539,0.3596,0.3609,0.362,0.3672,0.3688,0.3496,0.3496,0.3497,0,0.3076,0.3109,0.3134,0.3162,0.3191,0.3224,0.3252,0.327,0.3307,0.3336,0.3339,0.3411,0.3426,0.3492,0.3519,0.3515,0.3547,0.3502,0.3606,0.3617,0.3628,0.3679,0.3696,0.3499,0.3499,0.3499,0.3499,0,0.3093,0.3123,0.3136,0.3184,0.3215,0.3246,0.3298,0.3332,0.3364,0.3389,0.3469,0.3496,0.3542,0.3552,0.3554,0.3637,0.3636,0.3615,0.3582,0.3647,0.3696,0.3712,0.3504,0.3503,0.3502,0.3501,0,0,0.3053,0.3128,0.3134,0.3159,0.3235,0.3254,0.3324,0.3388,0.3439,0.3484,0.355,0.3606,0.3628,0.3649,0.3659,0.3702,0.3805,0.3694,0.3695,0.3744,0.3941,0.3895,0.3908,0.3805,0.3808,0.381,0.3948,0,0.3055,0.31,0.315,0.3196,0.3222,0.3291,0.3347,0.3419,0.3486,0.3559,0.3615,0.3682,0.3663,0.3701,0.3745,0.3801,0.385,0.3771,0.3873,0.3876,0.3825,0.3925,0.3614,0.3707,0.3964,0.3966,0.3968,0,0.3053,0.3088,0.3132,0.3207,0.3227,0.3267,0.3376,0.3437,0.3562,0.3621,0.3708,0.3755,0.3848,0.3814,0.394,0.3894,0.3928,0.3955,0.3961,0.391,0.386,0.3682,0.3726,0.3995,0.3993,0.3991,0.3989,0,0.3,0.3071,0.3104,0.3129,0.3224,0.3268,0.3331,0.3455,0.3526,0.3675,0.3747,0.3853,0.393,0.3989,0.4053,0.4012,0.4187,0.4131,0.412,0.4117,0.3868,0.3838,0.4221,0.4221,0.422,0.422,0.422,0,0.2976,0.2999,0.308,0.3095,0.3152,0.3238,0.3326,0.3416,0.356,0.3651,0.3772,0.3871,0.3982,0.4086,0.411,0.4185,0.4238,0.416,0.4161,0.3879,0.385,0.4101,0.4085,0.4225,0.4224,0.4223,0.4222,0,0.2914,0.2963,0.3002,0.3095,0.3128,0.3172,0.331,0.338,0.3528,0.366,0.3714,0.3922,0.4072,0.4162,0.4292,0.4267,0.4329,0.4332,0.4,0.396,0.4204,0.4189,0.434,0.434,0.434,0.4339,0.4339,0,0.2887,0.2904,0.2986,0.3015,0.3059,0.314,0.3205,0.3352,0.3437,0.3677,0.3737,0.395,0.4068,0.4263,0.428,0.4339,0.4377,0.4067,0.3925,0.4236,0.4223,0.4208,0.4194,0.3618,0.3612,0.3607,0.3603,0,0.2849,0.2881,0.2916,0.296,0.3015,0.3074,0.3178,0.3224,0.3406,0.3513,0.3686,0.3807,0.404,0.3998,0.4105,0.4081,0.4031,0.3971,0.4398,0.3641,0.3568,0.355,0.3558,0.3559,0.3564,0.3567,0.3569,0.3571,0.282,0.2829,0.2866,0.2893,0.2955,0.298,0.2973,0.3091,0.3169,0.3285,0.3507,0.359,0.3723,0.3745,0.367,0.3619,0.3881,0.3692,0.3701,0.3717,0.3614,0.3545,0.3513,0.3517,0.3521,0.3524,0.3526,0,0.2759,0.2766,0.2798,0.28,0.279,0.2865,0.2927,0.2882,0.2898,0.308,0.3192,0.3039,0.308,0.3194,0.3067,0.3103,0.3009,0.2965,0.2801,0.2851,0.2894,0.2741,0.2412,0.2408,0.2404,0.24,0,0,0.2725,0.2692,0.2687,0.261,0.262,0.2549,0.2537,0.2522,0.2599,0.2588,0.2635,0.2937,0.3117,0.2711,0.2693,0.2521,0.2643,0.2425,0.3334,0.3192,0.3228,0.3352,0.3181,0,0,0,0,0]},{"header":{"parameterUnit":"m.s-1","parameterCategory":2,"la1":30.2991,"la2":30.254,"lo1":-89.0895,"lo2":-89.0444,"dy":0.0017,"dx":0.0017,"nx":28,"ny":28,"refTime":"2024-12-17T03:00:00:Z","depth":"2","parameterNumber":3,"parameterNumberName":"V-component_of_CURRENTS"},"data":[0,0,0,0,0,0,0,0,0,0,0,0,0,0,0,0,0,0,0,0,0,0,0,0,0,0,0,0,0,0,0,0,0,0,0,0,0,0,0,0,0,0,0,0,0,0,0,0,0,0,0,0,0,0,0,0,0,0,0.0234,0.0233,0,0.0177,0.0177,0.0176,0.0126,0.0125,0.0124,0.0124,-0.0009,-0.0011,-0.0014,0,0,0,0,0,0,0,0,0,0,0,0,0,0.0267,0.0267,0.0234,0.0233,0.0232,0.0177,0.0177,0.0176,0.0126,0.0125,0.0124,0.0123,-0.0008,-0.0011,-0.0014,0,0,0,0,0,0,0,0,0,0,0,0,0,0.0238,0.0267,0.0234,0.0199,0.0195,0.0177,0.0177,0.0176,0.0126,0.0125,0.0124,0.0123,-0.0007,-0.0011,-0.0015,-0.0018,0,0,-0.0028,-0.003,0,0,0,0,0,0,0,0,0.024,0.0237,0.0205,0.0202,0.0197,0.0156,0.014,0.0107,0.0126,0.0154,0.0124,0.0122,0.0039,0.0031,0.0026,-0.0025,-0.003,-0.0028,-0.0031,-0.0033,-0.0034,0,0,0,0,0,0,0,0.0242,0.0239,0.0213,0.0204,0.0199,0.0175,0.0171,0.0134,0.0104,0.0152,0.0148,0.0139,0.0036,0.0031,0.0023,-0.0032,-0.0028,-0.0032,-0.0035,-0.0036,-0.0123,-0.0123,0,0,0,0,0,0,0.0248,0.0241,0.0215,0.0211,0.0214,0.0176,0.017,0.0172,0.0106,0.0094,0.014,0.0137,0.0039,0.0028,0.0018,-0.0002,-0.0033,-0.0037,-0.0039,-0.0123,-0.0123,-0.0123,0,0,0,0,0,0,0.0249,0.0247,0.0217,0.0223,0.0217,0.0177,0.0178,0.0171,0.016,0.0097,0.0084,0.0135,0.0037,0.0024,-0.0018,-0.0008,-0.0038,-0.0042,-0.0123,-0.0123,-0.0123,-0.0036,0,0,0,0,0,0,0.0251,0.0248,0.0251,0.0224,0.0217,0.0209,0.0179,0.0171,0.0156,0.0151,0.0089,0.0076,0.0035,-0.0011,-0.0022,-0.0014,-0.0046,-0.0124,-0.0123,-0.0123,-0.0039,-0.0032,-0.0027,0,0,0,0,0,0.0252,0.0266,0.0252,0.0249,0.0224,0.021,0.0205,0.0172,0.0157,0.0157,0.0112,0.0077,-0.0016,-0.0014,-0.0027,-0.002,-0.0124,-0.0123,-0.0123,-0.0041,-0.0034,-0.0027,0,0,0,0,0,0,0.028,0.0261,0.0246,0.0252,0.0231,0.02,0.0199,0.0177,0.0146,0.0139,0.008,0.0064,0.0032,-0.0007,-0.0003,-0.0045,-0.0076,-0.0078,-0.0009,-0.0003,0.0003,0.0026,-0.0049,0,0,0,0,0,0.0289,0.0294,0.0268,0.0271,0.0265,0.0234,0.0223,0.0204,0.0171,0.0157,0.0114,0.0066,0.0026,0.0002,-0.0038,-0.006,-0.0099,-0.0065,-0.0059,-0.0054,-0.0045,-0.0096,-0.0093,-0.0121,-0.0121,-0.0121,0,0,0.0298,0.0289,0.029,0.0277,0.0261,0.0267,0.0226,0.0217,0.022,0.0147,0.0135,0.0085,0.0025,0.0,-0.0017,-0.0032,-0.0065,-0.0053,-0.0048,-0.0042,-0.0095,-0.0092,-0.009,-0.0121,-0.0121,-0.0121,0,0,0.0328,0.0315,0.0333,0.0326,0.0308,0.0291,0.0291,0.0263,0.0247,0.0226,0.0176,0.0133,0.0075,0.0038,0.001,0.0024,-0.0032,0.0008,0.0056,0.0008,0.001,0.0011,-0.0027,-0.003,0.0012,0.0012,0.0012,0,0.034,0.0362,0.0334,0.0354,0.0354,0.0307,0.0329,0.0311,0.0271,0.0263,0.0231,0.0151,0.0095,0.0068,0.0069,0.0039,0.0004,0.0037,0.0017,0.0017,0.0017,-0.0023,-0.0027,0.0016,0.0016,0.0015,0.0015,0,0.0388,0.0405,0.0417,0.0428,0.0422,0.0434,0.0406,0.0401,0.037,0.0342,0.0305,0.023,0.0183,0.0156,0.0113,0.0091,0.0064,0.0032,0.0004,0.0026,-0.0018,-0.0024,0.0022,0.0021,0.002,0.0019,0,0,0.0419,0.0448,0.0452,0.0477,0.0466,0.0473,0.0479,0.0472,0.0486,0.0424,0.0428,0.0343,0.0296,0.0261,0.0199,0.0151,0.0114,0.0097,0.0092,0.0069,0.0013,-0.0016,-0.0026,0.0077,0.0077,0.0076,-0.0014,0,0.0467,0.0532,0.0522,0.0575,0.0607,0.0576,0.0593,0.0576,0.0545,0.0536,0.0448,0.0421,0.0337,0.0318,0.0255,0.0153,0.0102,0.0142,-0.0013,-0.0018,-0.0039,-0.0033,-0.0002,-0.0081,-0.002,-0.0021,-0.0022,0,0.0517,0.0559,0.0624,0.0671,0.0681,0.0701,0.0723,0.0732,0.0699,0.0675,0.062,0.0546,0.0469,0.0395,0.0231,0.026,0.0146,0.0059,0.0053,-0.0008,-0.0058,-0.0097,-0.0095,-0.0033,-0.0032,-0.0031,-0.003,0,0.0567,0.0627,0.0687,0.0702,0.0743,0.0768,0.0787,0.0775,0.0804,0.0763,0.0768,0.0652,0.0612,0.045,0.0259,0.0244,0.0077,0.0033,-0.0101,-0.0104,-0.0125,-0.0129,-0.0085,-0.0085,-0.0084,-0.0084,-0.0084,0,0.0626,0.0674,0.0722,0.076,0.0841,0.0838,0.091,0.091,0.0925,0.0972,0.0846,0.0854,0.0622,0.0494,0.0301,0.0089,0.0105,-0.0089,-0.013,-0.0094,-0.0094,-0.0093,-0.0092,-0.0088,-0.0087,-0.0086,-0.0086,0,0.067,0.0697,0.0779,0.0844,0.0869,0.093,0.1012,0.1069,0.1062,0.112,0.1114,0.1011,0.0844,0.0599,0.0347,0.0164,-0.0049,-0.0131,-0.0068,-0.01,-0.0209,-0.0203,-0.0288,-0.0289,-0.0291,-0.0292,-0.0293,0,0.07,0.0747,0.0847,0.0908,0.0943,0.1032,0.1102,0.1138,0.121,0.1224,0.127,0.1129,0.1055,0.0671,0.0324,-0.0014,-0.0057,-0.021,-0.0243,-0.0198,-0.023,-0.0222,-0.0214,-0.0236,-0.0236,-0.0236,-0.0237,0,0.0763,0.0794,0.0866,0.0995,0.1082,0.1192,0.1298,0.138,0.143,0.1469,0.151,0.1448,0.1092,0.0762,0.0293,0.006,-0.0158,-0.023,-0.0201,-0.0186,-0.0156,-0.0185,-0.0178,-0.0241,-0.024,-0.024,-0.024,-0.024,0.0809,0.087,0.0965,0.1089,0.1198,0.134,0.1447,0.156,0.1679,0.1758,0.1698,0.1618,0.1237,0.0646,0.0239,-0.0189,-0.0176,-0.0325,-0.0321,-0.0317,-0.0292,-0.0266,-0.0366,-0.0366,-0.0367,-0.0367,-0.0367,0,0.0869,0.0938,0.1054,0.1204,0.1335,0.1384,0.1571,0.1675,0.1825,0.1887,0.1907,0.154,0.1158,0.072,0.0088,-0.0292,-0.0317,-0.0411,-0.0354,-0.0347,-0.0342,-0.0317,-0.0399,-0.04,-0.0401,-0.0402,0,0,0.09,0.1012,0.1071,0.1287,0.1401,0.1583,0.1698,0.1842,0.1936,0.1984,0.1947,0.1852,0.131,0.0854,0.033,-0.0029,-0.0099,-0.0105,-0.004,0.0096,0.0106,-0.0258,-0.0208,0,0,0,0,0]}],[{"header":{"parameterUnit":"m.s-1","parameterCategory":2,"la1":30.2991,"la2":30.254,"lo1":-89.0895,"lo2":-89.0444,"dy":0.0017,"dx":0.0017,"nx":28,"ny":28,"refTime":"2024-12-17T03:00:00:Z","depth":"4","parameterNumber":2,"parameterNumberName":"U-component_of_CURRENTS"},"data":[0,0,0,0,0,0,0,0,0,0,0,0,0,0,0,0,0,0,0,0,0,0,0,0,0,0,0,0,0,0,0,0,0,0,0,0,0,0,0,0,0,0,0,0,0,0,0,0,0,0,0,0,0,0,0,0,0,0,0.1948,0.1949,0,0.2036,0.2037,0.2038,0.2113,0.2114,0.2115,0.2116,0.2235,0.2238,0.224,0,0,0,0,0,0,0,0,0,0,0,0,0,0.1819,0.1821,0.1948,0.1949,0.195,0.2036,0.2037,0.2038,0.2113,0.2114,0.2115,0.2117,0.2235,0.2237,0.224,0,0,0,0,0,0,0,0,0,0,0,0,0,0.1886,0.1822,0.1947,0.1999,0.2005,0.2036,0.2037,0.2039,0.2113,0.2114,0.2116,0.2117,0.2234,0.2237,0.224,0.2231,0,0,0.2251,0.2252,0,0,0,0,0,0,0,0,0.1882,0.1891,0.199,0.1996,0.2002,0.2067,0.2036,0.2105,0.2112,0.207,0.2116,0.2118,0.2182,0.219,0.22,0.2237,0.2242,0.2251,0.2253,0.2254,0.2255,0,0,0,0,0,0,0,0.1878,0.1887,0.1981,0.1992,0.1999,0.201,0.2021,0.2049,0.2116,0.2074,0.208,0.2092,0.2185,0.2196,0.2203,0.2244,0.2251,0.2254,0.2256,0.2257,0.242,0.2422,0,0,0,0,0,0,0.187,0.1883,0.1978,0.1984,0.1947,0.2011,0.2024,0.2043,0.2115,0.2128,0.2091,0.2095,0.219,0.2199,0.2208,0.2329,0.2254,0.2258,0.226,0.2418,0.242,0.2423,0,0,0,0,0,0,0.1867,0.1878,0.1975,0.1936,0.195,0.2012,0.2033,0.2044,0.2101,0.2128,0.2141,0.2142,0.2192,0.2203,0.2276,0.2329,0.2259,0.2262,0.2415,0.2419,0.2422,0.2489,0,0,0,0,0,0,0.1863,0.1877,0.1909,0.1936,0.1952,0.2025,0.2032,0.2045,0.2104,0.2112,0.2175,0.2185,0.2194,0.2271,0.2279,0.2333,0.2265,0.2412,0.2417,0.2421,0.2484,0.2494,0.2503,0,0,0,0,0,0.1858,0.1886,0.191,0.1923,0.1987,0.2027,0.2037,0.2083,0.2105,0.2138,0.2184,0.2185,0.2304,0.2275,0.2284,0.234,0.241,0.2415,0.242,0.248,0.2492,0.2503,0,0,0,0,0,0,0.185,0.1898,0.1924,0.1968,0.2012,0.2041,0.2081,0.2106,0.2166,0.2189,0.221,0.2223,0.2309,0.2313,0.2281,0.2401,0.236,0.2367,0.2402,0.2414,0.2423,0.2419,0.2268,0,0,0,0,0,0.1861,0.1899,0.1942,0.1984,0.2009,0.2053,0.2083,0.2116,0.216,0.2191,0.2234,0.2282,0.2328,0.2363,0.2402,0.2462,0.247,0.2506,0.2516,0.2524,0.2529,0.2587,0.2602,0.244,0.244,0.244,0,0,0.1868,0.1903,0.1925,0.1986,0.2025,0.2067,0.2076,0.2137,0.2183,0.2192,0.2284,0.2322,0.2353,0.2427,0.2466,0.2444,0.2577,0.2531,0.2537,0.2537,0.2594,0.2609,0.2623,0.2443,0.2443,0.2442,0,0,0.1886,0.1937,0.1971,0.2012,0.2082,0.2107,0.2134,0.2193,0.224,0.2315,0.2341,0.241,0.2479,0.2514,0.2536,0.2621,0.2627,0.2646,0.2694,0.2751,0.2764,0.2776,0.2812,0.2826,0.265,0.265,0.265,0,0.1899,0.1945,0.1989,0.2034,0.2074,0.2129,0.2174,0.2223,0.2303,0.2349,0.236,0.2488,0.2517,0.2601,0.2635,0.2644,0.2672,0.2644,0.2763,0.2775,0.2786,0.2819,0.2834,0.2654,0.2654,0.2653,0.2653,0,0.1929,0.1984,0.2011,0.2085,0.2135,0.2186,0.2251,0.2321,0.2382,0.2428,0.2542,0.2584,0.266,0.2685,0.2687,0.2789,0.2783,0.2767,0.2729,0.2806,0.2836,0.2851,0.266,0.2658,0.2657,0.2656,0,0,0.1905,0.2011,0.2025,0.2069,0.2169,0.2205,0.23,0.239,0.2462,0.2548,0.2639,0.2722,0.2762,0.2789,0.2813,0.2861,0.2962,0.2856,0.2857,0.2883,0.309,0.2902,0.2899,0.2977,0.298,0.2982,0.308,0,0.192,0.1998,0.2054,0.2138,0.2182,0.227,0.2347,0.2443,0.2532,0.2636,0.2707,0.2804,0.2796,0.2852,0.2902,0.2956,0.3004,0.2937,0.3017,0.3019,0.2837,0.2911,0.2992,0.3091,0.3094,0.3096,0.3098,0,0.1923,0.1978,0.2059,0.2166,0.2197,0.2263,0.2403,0.2484,0.2636,0.2708,0.2818,0.2882,0.2993,0.2965,0.309,0.3055,0.3082,0.3104,0.3108,0.2916,0.2858,0.2998,0.3124,0.3122,0.312,0.3118,0.3117,0,0.1864,0.1976,0.2041,0.208,0.2211,0.2282,0.2368,0.2517,0.2602,0.2775,0.2858,0.2981,0.3067,0.3129,0.3188,0.3161,0.3302,0.3265,0.3117,0.3104,0.3213,0.3199,0.3344,0.3344,0.3343,0.3343,0.3343,0,0.1834,0.1889,0.2027,0.206,0.215,0.2263,0.2382,0.2489,0.2654,0.275,0.2899,0.298,0.3118,0.3212,0.3235,0.322,0.3347,0.3134,0.312,0.3239,0.3228,0.3223,0.3208,0.3347,0.3346,0.3345,0.3345,0,0.1753,0.1845,0.1924,0.2072,0.2125,0.2197,0.2379,0.2458,0.2634,0.277,0.2835,0.3024,0.3135,0.3241,0.3348,0.3263,0.3278,0.3239,0.3373,0.3364,0.3028,0.3016,0.3074,0.3068,0.3063,0.3059,0.3056,0,0.1711,0.1747,0.191,0.196,0.2036,0.216,0.224,0.2428,0.2513,0.276,0.2805,0.2994,0.3093,0.3096,0.3212,0.325,0.3211,0.3192,0.3087,0.3022,0.3004,0.2999,0.2993,0.3048,0.3047,0.3045,0.3044,0,0.1627,0.1707,0.1775,0.1874,0.1967,0.2052,0.2188,0.2227,0.2438,0.2624,0.2708,0.2779,0.2898,0.2971,0.3032,0.3047,0.3187,0.314,0.3149,0.305,0.2991,0.2977,0.2977,0.3027,0.303,0.3031,0.3032,0,0.1569,0.1591,0.169,0.1763,0.1867,0.1906,0.1995,0.209,0.2194,0.2463,0.2481,0.268,0.2857,0.2868,0.2922,0.293,0.2877,0.2767,0.2794,0.2814,0.2684,0.2569,0.2471,0,0,0,0,0,0.1496,0.1505,0.1565,0.1627,0.1722,0.178,0.1937,0.2033,0.2233,0.2229,0.2349,0.2446,0.2531,0.2637,0.2595,0.2812,0.2889,0.275,0.2776,0.2934,0.2953,0.2824,0,0,0,0,0,0,0.1445,0.1497,0.1516,0.1498,0.151,0.1592,0.1681,0.1821,0.1834,0.2051,0.2115,0.2288,0.2414,0.2524,0.2541,0.2575,0.2539,0.2883,0.2876,0.2923,0.2941,0.2956,0.283,0,0,0,0,0]},{"header":{"parameterUnit":"m.s-1","parameterCategory":2,"la1":30.2991,"la2":30.254,"lo1":-89.0895,"lo2":-89.0444,"dy":0.0017,"dx":0.0017,"nx":28,"ny":28,"refTime":"2024-12-17T03:00:00:Z","depth":"4","parameterNumber":3,"parameterNumberName":"V-component_of_CURRENTS"},"data":[0,0,0,0,0,0,0,0,0,0,0,0,0,0,0,0,0,0,0,0,0,0,0,0,0,0,0,0,0,0,0,0,0,0,0,0,0,0,0,0,0,0,0,0,0,0,0,0,0,0,0,0,0,0,0,0,0,0,0.0256,0.0256,0,0.0211,0.021,0.021,0.0176,0.0176,0.0176,0.0176,0.0091,0.0089,0.0087,0,0,0,0,0,0,0,0,0,0,0,0,0,0.0276,0.0276,0.0256,0.0256,0.0255,0.0211,0.021,0.021,0.0176,0.0176,0.0176,0.0176,0.0092,0.0089,0.0087,0,0,0,0,0,0,0,0,0,0,0,0,0,0.0252,0.0276,0.0256,0.0234,0.0232,0.0211,0.021,0.021,0.0177,0.0176,0.0176,0.0176,0.0093,0.009,0.0087,0.0074,0,0,0.0077,0.0076,0,0,0,0,0,0,0,0,0.0253,0.0251,0.0238,0.0236,0.0233,0.02,0.0186,0.0162,0.0177,0.0197,0.0176,0.0175,0.0125,0.0119,0.011,0.007,0.0066,0.0077,0.0075,0.0074,0.0073,0,0,0,0,0,0,0,0.0255,0.0253,0.0237,0.0237,0.0234,0.0213,0.021,0.0181,0.0161,0.0195,0.0192,0.0189,0.0123,0.0113,0.0108,0.0065,0.0077,0.0074,0.0072,0.0071,0.0004,0.0004,0,0,0,0,0,0,0.0265,0.0255,0.0239,0.0236,0.0244,0.0214,0.021,0.021,0.0163,0.0156,0.0189,0.0188,0.0119,0.0112,0.0105,0.0097,0.0074,0.0071,0.0069,0.0004,0.0004,0.0004,0,0,0,0,0,0,0.0266,0.0264,0.0241,0.0245,0.024,0.0214,0.0214,0.0209,0.0201,0.0159,0.0151,0.0186,0.0118,0.0109,0.0086,0.0093,0.0069,0.0067,0.0004,0.0004,0.0004,0.0075,0,0,0,0,0,0,0.0266,0.0265,0.0269,0.0246,0.0241,0.0234,0.0215,0.0209,0.02,0.0197,0.0154,0.0146,0.0117,0.0091,0.0083,0.0088,0.0064,0.0004,0.0004,0.0004,0.0072,0.0077,0.0081,0,0,0,0,0,0.0267,0.0277,0.027,0.0268,0.0247,0.0234,0.023,0.0208,0.02,0.0199,0.0173,0.0147,0.0086,0.0089,0.008,0.0084,0.0004,0.0004,0.0004,0.007,0.0076,0.0081,0,0,0,0,0,0,0.0285,0.0274,0.0265,0.0271,0.0255,0.0229,0.0229,0.0213,0.0192,0.0192,0.015,0.014,0.0122,0.0092,0.0096,0.0063,0.0039,0.0038,0.0093,0.0098,0.0103,0.0119,0.0062,0,0,0,0,0,0.0293,0.0299,0.0279,0.0283,0.028,0.0255,0.0248,0.0235,0.0213,0.0203,0.0174,0.0142,0.0115,0.0099,0.007,0.0054,0.0017,0.0048,0.0053,0.0057,0.0063,0.0014,0.0015,0.0005,0.0005,0.0004,0,0,0.03,0.0295,0.0297,0.0287,0.0276,0.028,0.025,0.0246,0.0249,0.0197,0.0193,0.0158,0.0114,0.0098,0.0086,0.0074,0.004,0.0057,0.0062,0.0065,0.0014,0.0015,0.0016,0.0005,0.0005,0.0005,0,0,0.0321,0.0315,0.0328,0.0324,0.0314,0.03,0.0302,0.0281,0.0271,0.0259,0.0225,0.0196,0.0155,0.0127,0.0106,0.0117,0.0067,0.0104,0.0141,0.0093,0.0094,0.0094,0.0049,0.0044,0.0106,0.0106,0.0106,0,0.0329,0.0347,0.0328,0.0343,0.0347,0.0315,0.0332,0.0318,0.0291,0.0286,0.0267,0.0208,0.0169,0.0148,0.0151,0.0128,0.0093,0.0127,0.01,0.0099,0.0098,0.0052,0.0046,0.011,0.0109,0.0109,0.0109,0,0.0362,0.0378,0.0388,0.0398,0.0396,0.0407,0.0389,0.0387,0.037,0.0348,0.0324,0.027,0.0235,0.0215,0.0186,0.0162,0.0137,0.0114,0.0091,0.0104,0.0054,0.0046,0.0115,0.0113,0.0112,0.0112,0,0,0.0376,0.0406,0.0411,0.0434,0.0431,0.0437,0.0446,0.0442,0.0453,0.0411,0.0413,0.0353,0.0318,0.0292,0.0247,0.0203,0.0161,0.0161,0.0157,0.0125,0.0056,0.0035,0.0025,0.0134,0.0133,0.0132,0.0025,0,0.0408,0.0458,0.0458,0.0503,0.0528,0.0514,0.053,0.0521,0.0498,0.0491,0.0427,0.0408,0.035,0.0337,0.0283,0.0194,0.0145,0.0193,0.0041,0.0036,0.0023,0.0017,0.013,0.0019,0.0017,0.0016,0.0015,0,0.0439,0.0474,0.0527,0.0574,0.0584,0.0604,0.0627,0.0637,0.0612,0.0593,0.0551,0.0499,0.0434,0.0384,0.0235,0.0268,0.0171,0.0095,0.0088,0.0041,0.0002,0.0,0.0001,0.0002,0.0003,0.0004,0.0005,0,0.0465,0.052,0.0571,0.0586,0.0629,0.0655,0.0676,0.067,0.0693,0.0659,0.066,0.0566,0.0527,0.0395,0.0236,0.0235,0.0065,0.0042,-0.007,-0.0073,-0.0052,-0.0052,-0.0065,-0.0065,-0.0064,-0.0064,-0.0064,0,0.0498,0.0541,0.0595,0.0626,0.0697,0.0706,0.0767,0.0767,0.0779,0.0806,0.072,0.0705,0.0528,0.0411,0.0258,0.0071,0.0077,-0.0066,-0.0103,-0.0021,-0.0015,-0.0058,-0.0056,-0.0068,-0.0067,-0.0066,-0.0066,0,0.0514,0.0549,0.0618,0.0685,0.0713,0.0764,0.0844,0.0885,0.0883,0.0914,0.0911,0.0808,0.0647,0.0459,0.0237,0.0107,-0.0073,-0.0141,-0.0036,-0.0065,-0.0185,-0.0178,-0.0274,-0.0276,-0.0277,-0.0279,-0.028,0,0.0526,0.0563,0.0663,0.0716,0.0753,0.0834,0.0895,0.0932,0.0976,0.0971,0.0987,0.0857,0.0758,0.0438,0.0224,-0.007,-0.0116,-0.0208,-0.0203,-0.0181,-0.0207,-0.0198,-0.0189,-0.0282,-0.0282,-0.0283,-0.0283,0,0.0547,0.0585,0.0646,0.0757,0.0837,0.093,0.1016,0.1058,0.1097,0.1099,0.1047,0.0883,0.0696,0.0439,0.0209,-0.0004,-0.0147,-0.0223,-0.0222,-0.0218,-0.0191,-0.0214,-0.0204,-0.0288,-0.0287,-0.0287,-0.0286,0,0.0564,0.0608,0.0692,0.0791,0.0896,0.0994,0.1041,0.1094,0.1138,0.1134,0.1109,0.0909,0.0795,0.0472,0.0259,0.0047,-0.0012,-0.0079,-0.0087,-0.0084,-0.0003,0.0061,0.001,0,0,0,0,0,0.0577,0.063,0.0719,0.0832,0.0938,0.1005,0.1108,0.1147,0.1186,0.1163,0.1143,0.0969,0.0648,0.0507,0.0292,0.0212,-0.0061,-0.005,-0.0144,-0.0314,-0.0309,-0.0249,0,0,0,0,0,0,0.0584,0.0667,0.0713,0.0848,0.0931,0.1053,0.1124,0.1155,0.1144,0.1146,0.0981,0.0907,0.0596,0.0772,0.0285,0.0219,0.0128,-0.0196,-0.0201,-0.0318,-0.0313,-0.0308,-0.0245,0,0,0,0,0]}]]